Regional Weather Roundup
Issued by NWS

Current Version | Previous Version | Text Only | Print | Product List | Glossary On
Versions: 1 2 3 4 5 6 7 8 9 10 11 12 13 14 15 16 17 18 19 20 21 22 23 24 25 26 27 28 29 30 31 32 33 34 35 36 37 38 39 40 41 42 43 44 45 46 47 48 49 50
000
ASUS44 KOUN 010100
RWROK

WEATHER ROUNDUP FOR OKLAHOMA
NATIONAL WEATHER SERVICE NORMAN OK
700 PM CST SUN FEB 28 2021

NOTE: "FAIR" INDICATES FEW OR NO CLOUDS BELOW 12,000 FEET WITH NO
      SIGNIFICANT WEATHER AND/OR OBSTRUCTIONS TO VISIBILITY.

OKZ001>007-009>012-014-015-017-010200-
NORTHWEST OKLAHOMA AND THE PANHANDLE

CITY           SKY/WX    TMP DP  RH WIND       PRES   REMARKS
GAGE           CLEAR     43  16  33 N10       30.12R
GUYMON         CLEAR     38  13  35 N8        30.14R WCI  32
ENID/WOODRING  PTCLDY    46  32  57 N13       30.08R
$$

OKZ016-021>023-033>039-044-045-010200-
SOUTHWEST OKLAHOMA

CITY           SKY/WX    TMP DP  RH WIND       PRES   REMARKS
LAWTON/REGL    MOCLDY    52  23  32 N10       30.01S
LAWTON/FT SILL MOCLDY    51  26  38 N8        30.03R
FREDERICK      PTCLDY    52  24  33 NE10      30.02R
CLINTON        CLEAR     47  22  37 N12       30.08R
HOBART         CLEAR     48  19  31 MISG      30.07R
ALTUS AFB      PTCLDY    47  13  25 N10       30.06R
$$

OKZ018>020-024>031-010200-
CENTRAL OKLAHOMA

CITY           SKY/WX    TMP DP  RH WIND       PRES   REMARKS
OKLAHOMA CITY  MOCLDY    51  28  41 N16       30.04R
OKC/WILEY POST PTCLDY    50  30  46 N13       30.05R
OKC/TINKER AFB PTCLDY    50  30  46 N12       30.04R
STILLWATER     CLEAR     51  30  44 N9        30.06R
GUTHRIE        PTCLDY    50  30  46 N8        30.07R
$$

OKZ008-013-054>072-010200-
NORTHEAST OKLAHOMA

CITY           SKY/WX    TMP DP  RH WIND       PRES   REMARKS
TULSA          MOCLDY    49  29  46 N9        30.03R
TULSA/JONES    PTCLDY    54  28  36 N9        30.03R
PONCA CITY     CLEAR     47  28  47 N9        30.08R
BARTLESVILLE   PTCLDY    49  28  44 N6        30.07R
MUSKOGEE       MOCLDY    51  33  50 N10       30.03R
$$

OKZ032-040>043-046>053-073>077-010200-
SOUTH CENTRAL/SOUTHEAST OKLAHOMA

CITY           SKY/WX    TMP DP  RH WIND       PRES   REMARKS
MCALESTER      CLOUDY    50  36  58 N8        30.00R
$$





USA.gov is the U.S. government's official web portal to all federal, state and local government web resources and services.